Starlink 2304

decayed
NORAD ID: 47864 Int'l Des: 2021-021 Owner: SPXS Country: US Constellation: starlink
LEOCIRCULAR
Group

About Starlink 2304

Description loading...

Altitude History

Altitude vs Time

uPlot chart will show altitude changes over time

Two-Line Element Set

1 47864U 21021E 25036.56161576 .14236826 12474-4 66859-3 0 9999
2 47864 53.0263 211.9657 0005375 288.8767 184.8265 16.42957095216435
Epoch: Feb 5, 2025 • Age: 6535 hours

Current Status

Position data unavailable
Launch Date Mar 14, 2021
Age 4.6 years
Decay Date Feb 5, 2025
Type internet

Technical Details

Classification Payload
Mass 260.00 kg
Dry Mass 248.00 kg
Total Mass 260.00 kg
Length 0.20 m
Diameter 2.80 m
Span 9.00 m
Shape Box + pan
Manufacturer SPXS
Bus Type Starlink
Phase Status Reentered
Owner/State SPXS/US

Large Constellations

Loading constellations...